This demonstration page uses our WeatherBlox Daily Observations layout. Learn more.

Left ArrowRight Arrow

Hourly Observations for October 5, 2016

Temp ( °F °C ) Dew Point ( °F °C ) Humidity (%) Winds ( mph kmh ) Pressure ( in mb ) Visibility ( mi km ) Precip ( " mm )
12:54 am 00:54 Mostly Clear with Mist and Fog 55 12.8 54 12.2 96 96 W 3 6 29.72 1006 6 9.65604 0 0
1:00 am 01:00 Partly Cloudy with Mist and Fog 55 13 54 12 94 94 Calm 29.74 1007 1.5 2.41401 0 0
1:03 am 01:03 Mostly Cloudy with Mist and Fog 55 13 54 12 94 94 Calm 29.74 1007 0.75 1.207005 0 0
1:16 am 01:16 Mostly Cloudy with Fog 54 12.2 54 12.2 100 100 Calm 29.74 1007 0.25 0.402335 0 0
1:23 am 01:23 Mostly Cloudy with Fog 54 12.2 53 11.7 97 97 Calm 29.74 1007 0.5 0.80467 0 0
1:41 am 01:41 Mostly Cloudy with Fog 52 11.1 52 11.1 100 100 SSW 3 6 29.77 1008 0.25 0.402335 0 0
1:54 am 01:54 Mostly Cloudy with Fog 53 11.7 53 11.7 100 100 Calm 29.74 1007 0.25 0.402335 0 0
1:57 am 01:57 Mostly Cloudy with Fog 53 11.7 53 11.7 100 100 Calm 29.74 1007 0.5 0.80467 0 0
2:17 am 02:17 Mostly Cloudy with Fog 53 11.7 53 11.7 100 100 WNW 3 6 29.77 1008 0.25 0.402335 0 0
2:37 am 02:37 Mostly Cloudy with Mist and Fog 53 11.7 53 11.7 100 100 Calm 29.77 1008 0.75 1.207005 0 0
2:47 am 02:47 Mostly Cloudy with Mist and Fog 52 11.1 52 11.1 100 100 Calm 29.77 1008 1 1.60934 0 0
2:49 am 02:49 Mostly Cloudy with Mist and Fog 52 11 52 11 100 100 Calm 29.77 1008 0.75 1.207005 0 0
2:54 am 02:54 Mostly Cloudy with Fog 50 10 50 10 100 100 Calm 29.76 1008 0.5 0.80467 0 0
3:18 am 03:18 Mostly Cloudy with Fog 50 10 50 10 100 100 Calm 29.77 1008 0.25 0.402335 0 0
3:36 am 03:36 Mostly Clear with Fog 50 10 49 9.4 96 96 Calm 29.77 1008 0.25 0.402335 0 0
3:54 am 03:54 Mostly Clear with Fog 49 9.4 49 9.4 100 100 Calm 29.77 1008 0.5 0.80467 0 0
4:10 am 04:10 Mostly Cloudy with Fog 48 8.9 47 8.3 96 96 Calm 29.77 1008 0.5 0.80467 0 0
4:32 am 04:32 Partly Cloudy with Mist and Fog 52 11 50 10 94 94 SSW 8 13 29.8 1009 2.5 4.02335 0 0
4:39 am 04:39 Mostly Clear 51 10.6 51 10.6 100 100 SSW 7 11 29.83 1010 9 14.48406 0 0
4:54 am 04:54 Clear 50 10 49 9.4 96 96 SSE 7 11 29.82 1010 10 16.0934 0 0
5:54 am 05:54 Clear 50 10 49 9.4 96 96 WSW 3 6 29.85 1011 10 16.0934 0 0
6:54 am 06:54 Clear 50 10 49 9.4 96 96 NW 7 11 29.87 1012 10 16.0934 0 0
7:54 am 07:54 Sunny 48 8.9 46 7.8 93 93 N 6 9 29.91 1013 10 16.0934 0 0
8:54 am 08:54 Sunny 54 12.2 49 9.4 83 83 Calm 29.94 1014 10 16.0934 0 0
9:54 am 09:54 Sunny 59 15 49 9.4 69 69 NNE 8 13 29.95 1014 10 16.0934 0 0
10:54 am 10:54 Sunny 61 16.1 44 6.7 54 54 NE 9 15 29.96 1015 10 16.0934 0 0
11:54 am 11:54 Sunny 64 17.8 45 7.2 50 50 VRB 7 11 29.96 1015 10 16.0934 0 0
12:54 pm 12:54 Sunny 66 18.9 45 7.2 47 47 VRB 5 7 29.94 1014 10 16.0934 0 0
1:54 pm 13:54 Sunny 69 20.6 46 7.8 44 44 ENE 5 7 29.91 1013 10 16.0934 0 0
2:54 pm 14:54 Sunny 72 22.2 47 8.3 41 41 ENE 8 13 29.88 1012 10 16.0934 0 0
3:54 pm 15:54 Sunny 72 22.2 47 8.3 41 41 ESE 5 7 29.89 1012 10 16.0934 0 0
4:54 pm 16:54 Sunny 72 22.2 48 8.9 43 43 E 6 9 29.88 1012 10 16.0934 0 0
5:54 pm 17:54 Sunny 68 20 51 10.6 55 55 NE 7 11 29.88 1012 10 16.0934 0 0
6:54 pm 18:54 Partly Cloudy 64 17.8 51 10.6 63 63 E 7 11 29.92 1013 10 16.0934 0 0
7:54 pm 19:54 Clear 60 15.6 51 10.6 72 72 NE 8 13 29.94 1014 10 16.0934 0 0
8:54 pm 20:54 Clear 61 16.1 51 10.6 70 70 N 3 6 29.95 1014 10 16.0934 0 0
9:54 pm 21:54 Clear 58 14.4 51 10.6 78 78 Calm 29.95 1014 10 16.0934 0 0
10:54 pm 22:54 Clear 54 12.2 50 10 87 87 NNW 3 6 29.96 1015 10 16.0934 0 0
11:54 pm 23:54 Clear 52 11.1 49 9.4 89 89 Calm 29.96 1014 10 16.0934 0 0

Powered by AerisWeather